This is the latest recevied weather packets stored in our database for station/object AJ1L. If no packets are shown the sender has not sent any weather packets the latest 10 day(s).
| Time | Temp. | Humidity | Pressure | Rain* | Wind** | Luminosity | Snow |
|---|---|---|---|---|---|---|---|
| 1787994207 | 17.78° C | 72% | 1019.7 hPa | 0 mm | - | - | - |
| 1787993206 | 18.33° C | 72% | 1019.5 hPa | 0 mm | - | - | - |
| 1787992206 | 18.33° C | 71% | 1019.5 hPa | 0 mm | - | - | - |
| 1787991208 | 18.89° C | 71% | 1019.5 hPa | 0 mm | - | - | - |
| 1787990206 | 19.44° C | 71% | 1019.3 hPa | 0 mm | - | - | - |
| 1787989206 | 19.44° C | 70% | 1019.2 hPa | 0 mm | - | - | - |
| 1787988208 | 20° C | 71% | 1019.1 hPa | 0 mm | - | - | - |
| 1787987206 | 20° C | 72% | 1018.8 hPa | 0 mm | - | - | - |
| 1787986209 | 20° C | 73% | 1018.7 hPa | 0 mm | - | - | - |
| 1787985206 | 20.56° C | 74% | 1018.5 hPa | 0 mm | - | - | - |
| 1787984206 | 20.56° C | 73% | 1018.3 hPa | 0 mm | - | - | - |
| 1787983205 | 20.56° C | 75% | 1018.1 hPa | 0 mm | - | - | - |
| 1787982207 | 20.56° C | 75% | 1017.9 hPa | 0 mm | - | - | - |
| 1787981206 | 21.11° C | 74% | 1017.9 hPa | 0 mm | - | - | - |
| 1787980205 | 21.11° C | 73% | 1017.8 hPa | 0 mm | - | - | - |
| 1787979207 | 21.67° C | 73% | 1017.7 hPa | 0 mm | - | - | - |
| 1787978206 | 21.67° C | 72% | 1017.3 hPa | 0 mm | - | - | - |
| 1787977205 | 22.22° C | 73% | 1017.1 hPa | 0 mm | - | - | - |
| 1787976208 | 22.22° C | 73% | 1016.8 hPa | 0 mm | - | - | - |
| 1787975206 | 22.22° C | 73% | 1016.5 hPa | 0 mm | - | - | - |
| 1787974206 | 22.78° C | 74% | 1016.6 hPa | 0 mm | - | - | - |
| 1787973208 | 22.78° C | 75% | 1016.1 hPa | 0 mm | - | - | - |
| 1787972206 | 22.22° C | 77% | 1016 hPa | 0 mm | - | - | - |
| 1787971207 | 22.78° C | 77% | 1016 hPa | 0 mm | - | - | - |
| 1787970207 | 22.78° C | 77% | 1016 hPa | 0 mm | - | - | - |
* Rain latest hour (hover to see other rain measurements)
** Current wind speed in m/s (hover to see current wind gust speed)